Temperature
18 18 18 18 18 18 18 18 18 19 19 19 19 18 18 18 18 18 18 18 18 18 18 18 18 18 18 18 18 18 18 18 18 18 18 18 18 18 17 17 18 17 17
19 18 18 18 18 18 18 19 18 18 18 18 18 18 18 18 18 18 18 18 18 18 18 18 18 18 18 18 18 18 18 18 18 18 18 18 18 17 17 17 17 17 17
19 19 18 18 18 18 18 18 18 18 18 18 18 18 18 18 18 18 18 18 18 18 18 18 18 18 18 18 18 18 18 18 18 18 18 18 18 17 17 17 17 17 17
19 18 18 18 18 18 18 18 18 18 18 18 18 18 18 18 18 18 18 18 18 18 18 18 18 18 18 18 18 18 18 18 18 18 18 18 17 17 17 17 17 17 17
19 18 18 18 18 18 18 18 18 18 18 18 18 18 18 18 18 18 18 18 18 18 18 18 18 18 18 18 18 18 18 18 18 18 18 18 17 17 17 17 17 17 17
19 18 18 18 18 18 18 18 18 18 18 18 18 18 18 18 18 18 18 18 18 18 18 18 18 18 18 18 18 18 18 18 18 18 18 17 17 17 17 17 17 17 17
19 19 19 18 18 18 18 18 18 18 18 19 19 19 18 18 18 18 18 18 18 18 18 18 18 18 18 18 18 18 18 18 18 18 17 17 17 17 17 17 17 17 17
19 19 19 18 18 18 18 18 18 18 19 19 19 19 18 18 18 18 18 18 18 18 18 18 18 18 18 18 18 18 18 18 18 18 17 17 17 17 17 17 17 17 17
19 19 19 19 19 18 18 18 18 18 18 19 18 19 19 18 18 18 18 18 18 18 18 18 18 18 18 18 18 18 18 18 18 18 17 17 17 17 17 17 17 17 17
19 19 19 19 19 19 18 18 18 18 18 18 18 18 18 18 18 18 18 18 18 18 18 18 18 18 18 18 18 18 18 18 18 18 18 17 17 17 17 17 17 17 17
19 19 19 19 19 19 19 18 18 18 18 18 18 18 18 18 18 18 18 18 18 18 18 18 18 18 18 18 18 18 18 18 18 18 18 17 17 17 17 17 17 17 17
19 19 19 19 19 19 19 18 18 18 18 18 18 18 18 18 18 18 18 18 18 18 18 18 18 18 18 18 18 18 18 18 18 17 17 17 17 17 17 17 17 17 17
19 19 19 19 19 19 19 19 18 18 18 18 18 18 18 18 18 18 18 18 18 18 18 18 18 18 18 18 18 18 18 18 18 17 17 17 17 17 17 17 17 17 17
19 19 19 19 19 19 19 18 18 18 18 18 18 18 18 18 18 18 18 18 18 18 18 18 18 18 18 18 18 18 18 18 18 18 17 17 17 17 17 17 17 17 17
19 19 19 19 19 19 19 19 18 18 18 18 18 18 18 18 18 18 18 18 18 18 18 18 18 18 18 18 18 18 18 18 17 17 17 17 17 17 17 17 17 17 17
20 19 19 19 19 19 19 19 18 18 18 18 18 18 18 18 18 18 18 18 18 18 18 18 18 18 18 18 18 18 18 17 17 17 17 17 17 17 17 17 17 17 17
20 19 19 19 19 19 19 19 18 18 18 18 18 18 18 18 18 18 18 18 18 18 18 18 18 18 18 17 17 17 17 17 17 17 17 17 17 17 17 17 16 16 16
20 20 19 19 19 19 19 19 18 18 18 18 18 18 18 18 18 18 18 18 18 18 18 18 18 18 17 17 17 17 17 17 17 17 17 17 17 17 16 16 16 16 16
20 20 20 20 19 19 19 19 18 18 18 18 18 18 18 18 18 18 18 18 18 18 18 18 18 18 17 17 17 17 17 17 17 17 17 17 16 16 16 16 16 16 16
20 20 20 20 19 19 19 19 18 18 18 18 18 18 18 18 18 18 18 18 18 18 18 18 17 17 17 17 17 17 17 17 17 17 16 16 16 16 16 16 16 16 16
20 20 20 20 19 19 19 19 19 18 18 18 18 18 18 18 18 18 18 18 18 18 18 18 17 17 17 17 17 17 16 16 16 16 16 16 16 16 16 16 16 16 16
21 20 20 20 20 19 19 19 19 18 18 18 18 18 18 18 18 18 18 18 18 18 18 17 17 17 17 17 17 17 16 16 16 16 16 16 16 16 16 16 16 16 16
21 21 20 20 20 19 19 19 19 18 18 18 18 18 18 18 18 18 18 18 18 18 18 17 17 17 17 17 17 17 16 16 16 16 16 16 16 16 16 16 15 15 15
21 21 20 20 20 19 19 19 19 19 19 18 18 18 18 18 18 18 18 18 18 18 18 17 17 17 17 17 17 17 17 16 16 16 16 16 16 16 16 16 15 15 15
21 21 20 20 20 20 19 19 19 19 19 18 18 18 18 18 18 18 18 18 18 18 17 17 17 17 17 17 17 17 17 16 16 16 16 16 16 15 15 15 15 15 15
21 21 20 20 20 20 19 19 19 19 19 18 18 18 18 18 18 18 18 18 18 17 17 17 17 17 17 17 17 17 17 16 16 16 16 16 16 16 15 15 15 15 15
Wind_Speed
2 2 2 5 8 9 10 10 10 11 12 11 11 11 12 12 12 11 11 12 13 13 14 14 15 16 16 16 16 16 16 16 16 16 16 15 15 15 15 15 14 13 15
1 1 3 6 8 9 10 10 10 11 11 11 11 11 12 12 11 11 12 13 13 14 15 16 16 16 16 16 16 16 16 15 15 15 15 14 14 14 14 14 14 13 15
2 2 4 7 8 9 9 10 10 10 11 11 11 11 12 12 11 11 12 13 14 14 15 15 15 15 15 15 15 15 15 15 14 14 13 11 12 13 13 13 14 14 14
3 3 5 7 8 9 9 9 10 10 10 10 10 11 12 11 11 12 12 13 14 14 14 15 15 15 14 14 14 14 14 14 13 12 10 9 10 12 12 13 13 13 13
3 3 5 7 8 8 8 9 9 9 9 10 10 10 10 11 12 12 12 13 14 14 14 14 14 14 14 14 14 14 14 13 12 10 9 8 9 11 12 12 12 12 12
2 3 6 7 7 7 8 8 9 9 9 9 9 9 10 10 11 12 12 13 13 13 14 13 13 13 13 14 14 13 13 12 10 8 8 7 8 10 11 11 12 12 12
2 3 5 6 7 7 7 7 7 8 9 9 8 9 9 10 11 11 12 12 12 13 13 13 12 12 13 13 12 12 11 10 8 8 7 7 7 9 10 10 11 11 11
3 3 4 5 6 6 6 6 7 7 8 8 8 8 9 10 10 11 11 11 11 11 11 11 11 11 11 11 10 10 10 8 7 7 7 7 7 8 9 9 11 11 10
4 3 2 2 3 5 5 5 6 7 7 7 8 8 9 9 9 10 10 10 10 10 10 10 9 9 9 9 9 9 8 8 7 6 6 6 8 9 9 10 10 11 10
4 3 2 2 2 2 2 5 5 6 7 7 7 8 8 8 8 8 8 8 8 8 8 8 8 7 7 7 8 7 7 7 6 5 5 6 8 10 10 9 10 10 10
2 2 2 2 2 2 2 3 4 5 6 5 6 6 6 5 5 5 6 7 7 7 6 6 7 6 6 6 6 6 6 5 5 4 4 6 8 9 10 9 9 9 8
1 1 1 1 1 2 2 3 3 3 4 4 4 4 4 4 4 4 5 5 5 5 5 5 5 5 5 4 5 5 4 4 4 3 4 5 7 9 9 9 8 8 9
2 1 1 0 1 2 2 3 2 2 3 3 4 4 3 3 3 3 2 2 2 3 3 3 4 3 4 3 3 3 4 3 3 3 3 5 7 8 8 8 8 8 8
3 2 1 1 2 2 2 2 2 2 2 2 2 3 3 2 2 2 1 1 1 2 2 3 3 3 3 3 4 4 4 3 2 2 3 4 5 7 7 7 7 7 8
3 3 2 2 2 2 2 2 2 2 2 2 1 2 3 3 2 2 2 2 1 2 2 2 2 3 3 3 4 4 3 3 2 2 2 4 5 5 6 6 6 6 6
4 4 3 3 3 3 3 2 2 2 2 2 1 1 2 3 2 2 2 1 1 2 2 2 2 3 3 3 3 3 3 3 2 2 2 3 4 5 5 4 4 5 5
5 4 4 4 3 3 3 2 2 2 2 1 1 1 2 3 3 3 2 2 1 2 3 3 3 3 3 3 3 3 3 3 3 3 3 2 2 3 3 3 3 4 4
5 4 4 4 4 4 3 2 2 2 2 1 1 2 2 3 3 3 3 2 2 3 3 3 3 3 3 3 3 2 3 3 3 3 4 3 2 2 1 1 1 1 2
6 5 4 4 4 4 3 3 3 2 2 1 2 2 2 3 3 4 3 2 3 3 2 3 3 3 3 4 3 3 3 2 3 3 3 3 3 3 2 2 2 1 1
5 5 4 4 4 4 4 3 3 3 2 2 2 2 3 3 3 4 3 2 3 3 2 3 4 3 3 4 4 4 3 3 3 3 2 3 3 3 3 3 3 3 2
5 5 5 5 5 5 3 3 2 1 1 1 1 2 3 3 4 4 2 2 2 3 3 3 4 5 3 3 4 3 4 4 3 2 2 3 3 3 4 3 2 2 2
7 6 6 5 5 5 3 3 2 2 1 1 1 2 2 3 3 3 3 2 3 3 3 3 3 3 2 2 2 2 1 2 3 3 2 2 2 2 2 2 2 2 2
7 7 7 6 6 5 5 4 3 3 2 2 1 1 1 2 2 3 3 3 3 3 3 3 4 4 3 1 1 2 2 1 0 2 2 1 1 1 1 1 2 1 1
8 7 6 6 6 5 6 5 4 3 2 2 1 1 1 1 2 3 3 3 3 3 4 3 3 3 3 2 1 1 1 2 2 0 1 1 1 0 0 0 1 1 1
7 7 6 6 5 5 6 6 5 3 2 1 1 2 1 1 1 1 3 3 3 3 3 3 3 3 2 2 2 1 2 2 1 2 1 1 1 1 0 0 0 1 1
7 7 7 6 5 5 6 5 5 5 4 4 2 2 1 0 1 0 2 2 2 3 3 3 3 4 3 3 2 2 2 2 2 2 2 1 1 1 1 0 0 1 1
Wind_Direction
283 292 97 103 107 112 113 112 109 109 109 109 109 112 115 115 115 115 117 116 113 116 118 115 115 114 114 113 111 112 115 120 123 122 122 124 127 129 129 128 126 125 124
187 199 127 112 109 111 112 111 110 111 111 111 110 112 114 111 112 114 116 115 113 112 113 113 113 114 113 112 112 113 115 116 118 120 120 122 124 127 129 128 128 128 127
113 131 128 116 111 111 112 112 111 113 112 111 109 109 111 110 113 114 115 114 113 112 114 115 114 114 114 114 115 116 117 117 117 117 116 118 123 127 129 131 130 129 128
132 129 124 117 116 116 114 112 111 110 109 109 107 103 109 109 113 114 114 114 113 112 114 115 114 116 116 117 117 117 117 118 116 114 112 118 126 129 130 131 131 132 132
114 129 136 125 121 120 116 117 115 113 113 110 107 105 107 109 109 112 112 114 113 113 114 116 114 115 117 119 119 118 117 117 116 113 113 117 125 133 134 134 135 136 137
121 132 139 132 126 126 122 121 123 125 123 118 114 112 110 110 111 113 115 116 115 115 115 116 115 114 116 119 119 119 120 121 118 118 120 124 132 141 143 144 142 141 140
118 126 136 137 131 126 123 124 127 127 125 120 118 116 115 114 114 116 117 117 117 116 116 117 116 115 116 118 118 120 123 123 122 123 127 133 141 146 149 148 146 143 142
109 98 119 137 135 128 126 125 126 128 126 122 122 120 118 118 118 118 119 120 120 119 119 119 118 116 117 120 119 121 126 127 126 129 134 141 150 156 155 155 152 150 148
89 84 76 91 115 128 133 132 129 130 129 125 122 121 122 123 124 123 123 125 124 123 123 122 121 121 120 121 123 125 128 125 125 135 143 150 159 162 160 160 158 158 156
70 61 56 55 60 85 124 137 129 131 131 128 127 127 125 125 127 126 125 127 127 127 127 128 129 128 122 120 121 125 122 119 126 135 144 154 161 164 164 164 162 161 163
82 44 40 46 46 61 114 132 119 121 125 127 131 129 118 108 112 118 124 132 131 131 130 131 133 128 121 118 121 125 119 123 132 132 142 157 162 165 168 170 166 167 170
148 78 48 45 40 50 101 95 85 90 95 97 110 110 103 105 106 114 121 128 131 130 129 128 129 126 117 108 116 120 120 129 132 137 146 155 167 173 178 179 174 176 177
176 151 120 74 67 76 77 84 83 82 83 89 107 116 117 106 105 97 102 97 96 106 105 108 104 111 117 119 120 122 125 131 135 140 158 169 171 178 184 184 181 179 180
150 173 147 121 91 92 99 89 91 88 82 96 124 132 129 125 121 122 122 105 85 99 104 101 103 104 106 117 126 125 126 133 138 145 158 168 177 181 181 179 176 172 175
163 171 158 138 131 111 108 103 104 108 112 118 127 133 138 133 125 121 119 118 120 121 119 114 106 104 102 107 112 112 115 124 140 146 154 157 163 170 170 172 168 172 180
178 172 154 150 147 125 124 128 112 116 125 126 121 125 139 141 134 124 108 96 108 120 118 119 115 105 102 103 97 99 105 110 112 124 135 145 148 155 160 169 178 183 184
180 166 160 162 144 139 142 142 127 127 129 123 148 142 148 150 153 138 114 106 108 111 104 101 100 96 96 96 93 92 96 96 98 99 104 107 128 155 173 182 198 201 205
172 168 175 168 148 149 142 127 120 118 125 131 134 126 139 153 153 136 121 112 107 105 108 112 109 99 96 99 92 80 81 88 95 93 93 90 88 88 115 131 162 192 214
177 170 163 153 145 143 126 106 101 104 109 121 124 124 129 142 143 136 129 123 114 104 103 115 104 110 110 103 94 78 69 77 87 96 97 98 95 83 77 64 64 82 89
168 161 155 143 132 118 101 89 78 77 78 89 107 126 131 132 131 133 126 121 116 104 96 104 105 101 112 112 97 77 61 61 68 76 95 95 94 88 81 72 61 50 53
158 156 155 147 144 132 119 114 108 96 80 85 95 120 137 134 131 136 132 116 112 114 117 117 112 106 98 105 96 73 51 55 59 58 76 84 83 89 87 77 63 54 35
171 170 164 164 160 158 147 133 130 122 103 91 80 94 123 139 145 146 144 137 129 124 117 117 116 112 110 108 110 109 72 29 31 43 62 90 87 81 80 77 64 49 29
180 180 180 177 170 164 148 118 97 77 60 64 81 80 84 122 131 134 143 142 140 140 140 142 141 137 145 127 97 132 141 188 18 23 38 57 72 74 56 64 55 31 24
190 182 176 173 170 164 154 150 151 154 167 189 163 138 81 111 132 146 151 149 146 146 148 157 146 143 141 152 110 82 121 146 151 136 11 37 58 83 350 37 28 7 360
183 178 175 168 170 165 164 166 161 162 168 138 116 118 85 44 76 126 148 150 152 157 161 156 146 147 147 155 152 135 102 81 110 154 201 315 357 353 331 353 10 343 326
173 172 170 169 177 171 170 169 170 173 166 154 157 160 143 59 24 86 152 154 158 163 168 167 165 162 161 159 165 167 162 162 170 160 181 226 267 320 348 30 42 332 323
Height
1493 1493 1493 1492 1493 1494 1495 1496 1497 1498 1499 1500 1500 1501 1502 1503 1504 1505 1506 1507 1508 1509 1510 1511 1512 1514 1516 1518 1520 1522 1524 1526 1528 1530 1532 1535 1537 1540 1542 1544 1545 1547 1548
1494 1494 1494 1494 1495 1495 1496 1498 1499 1500 1501 1501 1502 1503 1504 1505 1506 1507 1508 1509 1510 1511 1512 1514 1515 1517 1519 1521 1522 1524 1526 1528 1530 1532 1534 1537 1539 1541 1543 1545 1547 1548 1550
1495 1495 1495 1496 1497 1497 1498 1499 1500 1501 1502 1503 1504 1505 1506 1507 1508 1509 1510 1511 1512 1513 1515 1517 1518 1520 1521 1523 1525 1527 1529 1531 1533 1535 1537 1539 1541 1543 1545 1546 1548 1550 1551
1497 1497 1497 1498 1498 1499 1500 1501 1502 1503 1504 1505 1506 1507 1508 1509 1509 1511 1512 1513 1515 1516 1518 1519 1521 1522 1523 1525 1527 1530 1532 1534 1535 1537 1539 1541 1543 1544 1546 1548 1549 1551 1552
1498 1498 1499 1500 1500 1501 1502 1503 1504 1505 1506 1507 1508 1509 1510 1511 1512 1513 1514 1516 1517 1519 1520 1522 1523 1524 1525 1527 1530 1532 1534 1536 1537 1539 1541 1542 1544 1546 1547 1549 1550 1552 1554
1499 1500 1501 1501 1502 1503 1504 1505 1506 1507 1508 1509 1510 1511 1512 1513 1515 1516 1517 1518 1520 1521 1523 1524 1526 1527 1528 1530 1532 1534 1536 1538 1539 1541 1542 1544 1545 1547 1549 1550 1551 1553 1554
1500 1501 1502 1502 1503 1504 1505 1506 1507 1509 1510 1511 1512 1513 1515 1516 1517 1518 1520 1521 1522 1524 1525 1527 1528 1530 1531 1533 1535 1537 1538 1540 1541 1542 1544 1545 1547 1548 1550 1551 1552 1554 1555
1503 1503 1504 1504 1505 1506 1507 1508 1509 1510 1511 1513 1514 1515 1516 1518 1519 1521 1522 1523 1525 1526 1528 1530 1531 1532 1534 1536 1537 1539 1540 1542 1543 1544 1545 1547 1548 1549 1550 1551 1553 1555 1556
1505 1505 1506 1506 1507 1508 1509 1510 1510 1512 1513 1514 1515 1517 1518 1520 1521 1523 1524 1526 1527 1529 1530 1532 1533 1535 1537 1538 1540 1541 1542 1543 1544 1545 1547 1548 1549 1550 1551 1552 1554 1555 1556
1508 1508 1508 1509 1509 1509 1510 1511 1512 1513 1514 1516 1517 1518 1520 1521 1523 1524 1526 1528 1529 1531 1532 1534 1536 1537 1539 1540 1541 1542 1544 1545 1546 1547 1548 1549 1549 1550 1552 1553 1554 1556 1557
1510 1510 1511 1511 1510 1510 1510 1512 1513 1514 1516 1517 1518 1520 1521 1523 1524 1526 1528 1530 1531 1533 1534 1536 1537 1539 1540 1542 1543 1544 1545 1546 1547 1548 1549 1549 1550 1551 1552 1554 1555 1556 1557
1512 1513 1513 1513 1512 1512 1512 1513 1515 1516 1517 1518 1519 1521 1523 1524 1526 1528 1530 1531 1533 1534 1536 1537 1538 1540 1541 1543 1544 1545 1546 1547 1548 1549 1549 1550 1551 1551 1553 1554 1555 1556 1557
1515 1515 1515 1515 1515 1515 1515 1516 1517 1518 1519 1520 1521 1523 1524 1526 1528 1530 1531 1533 1534 1536 1537 1538 1539 1541 1542 1544 1545 1546 1547 1548 1549 1549 1550 1550 1551 1552 1553 1554 1554 1556 1557
1517 1517 1517 1518 1518 1518 1518 1519 1520 1520 1521 1522 1523 1525 1526 1528 1529 1531 1533 1534 1536 1537 1538 1539 1540 1542 1543 1544 1546 1547 1548 1548 1549 1550 1550 1551 1551 1552 1553 1554 1554 1555 1556
1518 1519 1519 1520 1520 1521 1521 1521 1522 1523 1524 1524 1525 1527 1528 1529 1531 1532 1534 1535 1537 1538 1539 1541 1542 1543 1544 1545 1546 1547 1548 1549 1550 1550 1551 1551 1552 1552 1553 1554 1554 1555 1556
1520 1521 1521 1522 1523 1523 1524 1524 1525 1526 1526 1526 1527 1528 1529 1530 1532 1533 1535 1537 1538 1539 1541 1542 1543 1544 1545 1546 1547 1548 1548 1549 1550 1550 1551 1552 1552 1552 1553 1553 1554 1555 1555
1521 1522 1523 1524 1525 1525 1526 1527 1527 1528 1528 1529 1529 1530 1531 1532 1534 1535 1536 1538 1539 1540 1541 1542 1543 1545 1546 1547 1547 1548 1549 1549 1550 1551 1551 1552 1552 1553 1553 1553 1554 1555 1555
1523 1523 1524 1525 1526 1527 1528 1529 1529 1530 1530 1531 1532 1533 1533 1534 1535 1536 1538 1539 1540 1541 1542 1543 1544 1545 1546 1547 1547 1548 1549 1550 1550 1551 1551 1552 1552 1553 1553 1553 1554 1554 1554
1523 1524 1525 1526 1528 1528 1529 1530 1531 1531 1532 1533 1534 1534 1535 1536 1537 1538 1539 1540 1541 1542 1543 1544 1544 1545 1546 1547 1547 1548 1549 1550 1550 1551 1551 1552 1552 1552 1553 1553 1553 1554 1554
1524 1525 1526 1527 1528 1529 1530 1531 1532 1533 1533 1534 1535 1536 1537 1537 1539 1539 1540 1541 1542 1543 1544 1544 1545 1546 1546 1547 1547 1548 1549 1550 1550 1551 1551 1551 1552 1552 1552 1552 1553 1553 1553
1524 1525 1527 1528 1529 1530 1531 1531 1533 1533 1534 1535 1536 1537 1538 1538 1539 1540 1541 1542 1542 1543 1544 1545 1545 1546 1546 1547 1547 1548 1549 1550 1550 1551 1551 1551 1551 1552 1552 1552 1552 1552 1552
1523 1525 1526 1528 1529 1531 1532 1533 1534 1535 1535 1536 1537 1538 1538 1539 1539 1540 1541 1542 1543 1544 1544 1545 1545 1546 1547 1547 1548 1548 1549 1551 1551 1551 1551 1551 1551 1551 1552 1552 1551 1552 1552
1522 1524 1526 1527 1529 1530 1532 1533 1534 1535 1536 1537 1538 1538 1539 1540 1540 1541 1542 1542 1543 1544 1544 1545 1546 1546 1547 1548 1548 1549 1549 1549 1550 1551 1551 1551 1551 1551 1551 1551 1551 1551 1551
1521 1523 1525 1527 1529 1531 1532 1533 1534 1535 1536 1537 1538 1538 1539 1540 1540 1541 1541 1542 1543 1544 1544 1545 1545 1546 1547 1547 1548 1548 1549 1549 1550 1550 1551 1551 1551 1551 1551 1551 1551 1551 1550
1520 1522 1525 1527 1529 1530 1532 1533 1534 1535 1536 1537 1538 1538 1539 1540 1541 1541 1541 1542 1543 1543 1544 1545 1545 1546 1546 1547 1547 1548 1548 1548 1549 1549 1549 1550 1550 1550 1550 1550 1550 1550 1550
1518 1520 1523 1525 1527 1529 1531 1532 1533 1535 1536 1537 1537 1538 1539 1540 1540 1541 1541 1542 1542 1543 1543 1544 1545 1545 1546 1546 1546 1547 1547 1547 1547 1548 1548 1548 1548 1549 1549 1549 1549 1549 1549